STARLINK-35380, 65905

Orbit data source: Space-Track

STARLINK-35380, 65905 is a payload satellite owned by SpaceX/Seattle (US) in LEO that was launched on Tue, 07 Oct 2025 UTC via an FALCON 9 launch vehicle from the Air Force Eastern Test Range (AFETR). Payload-class satellites include a variety of spacecraft equipped with specific instruments for various scientific and technological missions. These include communications satellites like Starlink; space stations such as the ISS; scientific satellites like the Hubble; Earth observation satellites from companies like Planet Labs, Umbra, and HawkEye 360; GPS; miniature CubeSats for education and research; and military/defense satellites.

Loading next visibility...
Identifier
65905, 2025-224Z
Orbit
LEO
Country
Flag of USUS
Related business
Manufacturer
SpaceX/Seattle
Mission
Operational Commercial Communications
Bus & Motor
STARLINK V2MO, Unknown motor
Mass
575 kg wet, ~530 kg dry
Launch date (UTC)
2025-10-07 (5 months ago)
Launch vehicle
FALCON 9
Launch site
Air Force Eastern Test Range (AFETR)
Object type
Payload
Rocket body
Debris
Shape & HBR
Box + 2 Pan, 17.7 m
Radar Cross Section
36.964 m²

Expand to show TLE details & history
Last TLE update: 10 hours ago

TLE from 10 hours ago
0 STARLINK-35380
1 65905U 25224Z   26062.15747728  .00047151  00000-0  15938-2 0  9993
2 65905  53.1590  41.7176 0001166  84.1831 275.9303 15.30205028 23825
Epoch: 2026-03-03T03:46Z
TLE epoch observation values (Epoch: 2026-03-03T03:46:46.036Z)
Latitude
0.00003°
Longitude
-175.91476°
Altitude
476.017 km
Speed
7.629 km/s
True Right ascension
02h 46m 52s
True Declination
0° 00' 00"
Sunlit
Object was in daylight at epoch
Visualization orbit readout
Latitude
Unknown
Longitude
Unknown
Altitude
Unknown
Speed
Unknown
Apparent Right ascension
Unknown
Apparent Declination
Unknown
Sunlit
N/A
Visualization observer readout
Local Sidereal Time
17:49:27
Azimuth
Unknown
Elevation
Unknown
Doppler factor
Unknown
Orbital elements
Apogee altitude
476.256 km
Perigee altitude
474.658 km
Semi-major axis
6,853.594 km
Eccentricity
0.00012
Inclination
53.159°
RAAN
41.7176°
Arg. of periapsis
84.1831°
True anomaly
275.91701°
Mean anomaly
275.9303°
Eccentric anomaly
275.92365°
Mean motion
3.8253 °/min
Orbital period
94.11 mins
BSTAR
0.0015938
Loading maneuver chart data...
Computing Atmospheric mass density...
Loading historical data...
Loading historical data...
Loading historical data...
Loading historical data...
Loading historical data...
Loading historical data...
Loading historical data...

Documentation

Showing up to 5 results
|